Location: Recife
(8.0585°S, 34.8848°W)
Time: 12:18:40
(UTC-03:00)

Injun/Solrad 3 - Pass Details

Date: 23 April 2026
Orbit: 868 x 988 km, 66.8° (Epoch: 12 May)

Event Time Altitude Azimuth Distance (km) Brightness Sun altitude
Rises 18:49:24 0° 220° (SW) 3,455 11.3 -24.0°
Reaches altitude 10° 18:52:13 10° 232° (SW) 2,514 10.7 -24.7°
Maximum altitude 18:57:02 27° 288° (WNW) 1,600 9.8 -25.9°
Drops below altitude 10° 19:01:53 10° 345° (NNW) 2,527 10.4 -27.0°
Sets 19:04:44 0° 357° (N) 3,477 11.1 -27.7°
